Regional Weather Roundup
Issued by NWS

Home | Current Version | Previous Version | Text Only | Print | Product List | Glossary On
Versions: 1 2 3 4 5 6 7 8 9 10 11 12 13 14 15 16 17 18 19 20 21 22 23 24 25 26 27 28 29 30 31 32 33 34 35 36 37 38 39 40 41 42 43 44 45 46 47 48 49 50
296
ASUS43 KMKX 221920
RWRWI

WISCONSIN REGIONAL WEATHER ROUNDUP
NATIONAL WEATHER SERVICE MILWAUKEE/SULLIVAN WI
200 PM CDT TUE MAY 22 2018

NOTE: "FAIR" INDICATES FEW OR NO CLOUDS BELOW 12,000 FEET WITH NO
SIGNIFICANT WEATHER AND/OR OBSTRUCTIONS TO VISIBILITY.

WIZ001-002-006>008-014>016-023>028-222000-
NORTHWEST WISCONSIN

CITY           SKY/WX    TMP DP  RH WIND       PRES   REMARKS
SUPERIOR ARPT  PTSUNNY   76  55  49 SW8       30.01S
ASHLAND        FAIR      76  50  40 CALM      30.02F
HAYWARD        FAIR      73  56  54 MISG      30.05F
SIREN          CLOUDY    69  56  63 SE5       30.06F
CUMBERLAND     PTSUNNY   66  54  63 CALM      30.06F
RICE LAKE      FAIR      69  55  60 CALM      30.07F
CHETEK         CLOUDY    65  57  73 NE5       30.07F
LADYSMITH      CLOUDY    69  56  64 S6        30.08F
EAU CLAIRE     CLOUDY    65  56  72 E5        30.07F
MENOMONIE      PTSUNNY   68  56  64 CALM      30.06F
NEW RICHMOND   FAIR      69  55  60 SW5       30.06F
OSCEOLA        PTSUNNY   70  56  62 SW3       30.08F
$$

WIZ003>005-009-010-017-018-222000-
NORTH CENTRAL WISCONSIN

CITY           SKY/WX    TMP DP  RH WIND       PRES   REMARKS
MANITOWISH WTR CLOUDY    72  48  41 S7        30.04S
ARBOR VITAE    PTSUNNY   77  52  42 NW6       30.04S
WOODRUFF       PTSUNNY   77  52  42 NW6       30.04S
RHINELANDER    FAIR      77  45  32 VRB3      30.04F
EAGLE RIVER    FAIR      75  39  27 SW7       30.03S
LAND O LAKES   PTSUNNY   74  39  27 W7        30.04F
PHILLIPS       CLOUDY    70  56  62 NW3       30.04F
TOMAHAWK       CLOUDY    71  52  50 W7        30.05F
MEDFORD        FAIR      68  55  62 W7        30.07S
MERRILL        PTSUNNY   72  58  61 W10       30.05F
$$

WIZ029-030-035-036-043>047-222000-
CENTRAL WISCONSIN

CITY           SKY/WX    TMP DP  RH WIND       PRES   REMARKS
WAUSAU         CLOUDY    67  56  67 SW9       30.05S
MOSINEE        CLOUDY    68  57  68 SW7       30.08S
MARSHFIELD     CLOUDY    65  57  75 W8        30.07S
STEVENS POINT  PTSUNNY   66  56  69 SW8       30.08S
WAUPACA        CLOUDY    72  56  57 CALM      30.06S
WAUTOMA        PTSUNNY   67  58  72 SW5       30.07F
WISC RAPIDS    CLOUDY    66  56  70 VRB3      30.09S
CAMP DOUGLAS   CLOUDY    64  57  77 S3        30.08F
$$

WIZ011>013-019>022-031-037>040-048>050-222000-
NORTHEAST WISCONSIN

CITY           SKY/WX    TMP DP  RH WIND       PRES   REMARKS
ANTIGO         CLOUDY    71  54  55 SW7       30.05S
SHAWANO        CLOUDY    73  58  59 S3        30.04F
OCONTO         FAIR      66  54  65 SE7       30.04F
STURGEON BAY   FAIR      65  54  67 NW9         N/A
GREEN BAY      FAIR      69  59  70 NW6       30.05F
MANITOWOC      FAIR      64  55  72 VRB3      30.06F
APPLETON       PTSUNNY   66  55  68 CALM      30.05F
CLINTONVILLE   CLOUDY    70  54  56 W6        30.04F
OSHKOSH        HAZE      67  58  72 NE5       30.06F VSB 3/4
$$

WIZ032>034-041-042-053>061-222000-
SOUTHWEST WISCONSIN

CITY           SKY/WX    TMP DP  RH WIND       PRES   REMARKS
LA CROSSE      CLOUDY    66  56  70 CALM      30.07F
SPARTA         CLOUDY    60  56  85 N3        30.09F
VIROQUA        CLOUDY    62  59  88 NW3       30.08F
BOSCOBEL       CLOUDY    68  59  73 CALM      30.08F
PRAIRIE DU CHI CLOUDY    68  56  65 W6        30.07F
PLATTEVILLE    CLOUDY    66  62  87 CALM      30.08F
$$

WIZ056-057-062-063-064-067-068-222000-
SOUTH CENTRAL WISCONSIN

CITY           SKY/WX    TMP DP  RH WIND       PRES   REMARKS
REEDSBURG      CLOUDY    63  58  84 N3        30.07F
BARABOO/DELLS  CLOUDY    61  55  79 CALM      30.08F
LONE ROCK      CLOUDY    65  58  78 CALM      30.08F
MINERAL POINT  CLOUDY    66  61  82 NW6       30.09S
MADISON        CLOUDY    63  56  78 VRB5      30.08F
MIDDLETON      CLOUDY    64  57  77 CALM      30.09F
WATERTOWN      CLOUDY    63  58  84 CALM      30.07F
MONROE         CLOUDY    64  59  82 N6        30.08S
JANESVILLE     CLOUDY    64  57  77 NW8       30.08S
$$

WIZ051-052-058>065-066-070>072-222000-
SOUTHEAST WISCONSIN

CITY           SKY/WX    TMP DP  RH WIND       PRES   REMARKS
MILWAUKEE      PTSUNNY   60  55  83 CALM      30.07F
WAUKESHA       CLOUDY    61  54  77 W5        30.09S
MILWAUKEE/TIMM CLOUDY    63  54  72 NW6       30.08S
RACINE         CLOUDY    58  53  84 E5        30.09S
BURLINGTON     CLOUDY    62  55  79 W3        30.08S
KENOSHA        CLOUDY    60  55  83 CALM      30.08R
FOND DU LAC    PTSUNNY   64  57  78 VRB5      30.07F
SHEBOYGAN      CLOUDY    65  56  72 VRB6      30.06F
WEST BEND      CLOUDY    63  57  82 W7        30.06S
JUNEAU         CLOUDY    60  56  85 CALM      30.09S
$$

LSZ147-162-222000-
LAKE SUPERIOR

STATION/POSITION TIME  TEMP    WIND        PRES    WAVE
                       AIR SEA DIR/SP/G            HT/PER
                 (UTC) (F)     (DEG/KT/KT) (MB)    (FT/S)
W MID LAKE BUOY  1850   42 36  230/  8/ 10 1017.0F   0
DEVILS ISLAND    1900   61     250/  8/ 10 1016.9F
SAXON HARBOR     1840   64      60/  5/  7 1016.6F
$$

LMZ867-665-643>646-222000-
LAKE MICHIGAN

STATION/POSITION TIME  TEMP    WIND        PRES    WAVE
                       AIR SEA DIR/SP/G            HT/PER
                 (UTC) (F)     (DEG/KT/KT) (MB)    (FT/S)
N MID LAKE BUOY  1900   42 38  180/  4/  6 1017.2
NORTHPORT PIER   1840   52     110/  4/  4 1017.3F
KEWAUNEE LAKESHO 1854   52     170/  6/  7 1017.1F
SHEBOYGAN LAKESH 1900   50     100/  3/  3 1018.2F
PORT WASHINGTON  1840   51     130/  3/  3 1019.3F
ATWATER BUOY     1837   49 47   60/  2/  4 1018.8S
MILWAUKEE LAKESH 1900   49      70/  5/  5   N/A
KENOSHA   LAKESH 1900   48                 1018.6
$$

TC  - TEMPERATURE IN CELSIUS
VSB - VISIBILITY IN STATUTE MILES
WCI - WIND CHILL INDEX
HX  - HEAT INDEX





USA.gov is the U.S. government's official web portal to all federal, state and local government web resources and services.